Regional Weather Roundup
Issued by NWS

Home | Current Version | Previous Version | Text Only | Print | Product List | Glossary Off
Versions: 1 2 3 4 5 6 7 8 9 10 11 12 13 14 15 16 17 18 19 20 21 22 23 24 25 26 27 28 29 30 31 32 33 34 35 36 37 38 39 40 41 42 43 44 45 46 47 48 49 50

000
ASUS43 KMKX 262000
RWRWI

WISCONSIN REGIONAL WEATHER ROUNDUP
NATIONAL WEATHER SERVICE MILWAUKEE/SULLIVAN WI
300 PM CDT SUN APR 26 2015

NOTE: "FAIR" INDICATES FEW OR NO CLOUDS BELOW 12,000 FEET WITH NO
SIGNIFICANT WEATHER AND/OR OBSTRUCTIONS TO VISIBILITY.

WIZ001-002-006>008-014>016-023>028-262100-
NORTHWEST WISCONSIN

CITY           SKY/WX    TMP DP  RH WIND       PRES   REMARKS
SUPERIOR ARPT  SUNNY     47  29  51 NE8       30.19S
ASHLAND        SUNNY     52  31  44 N13       30.18F
HAYWARD        SUNNY     57  17  21 N12G21    30.11F
SIREN          SUNNY     59  19  21 CALM      30.12S
CUMBERLAND     SUNNY     55  21  26 N7        30.10F
RICE LAKE      SUNNY     58  22  24 N6        30.12S
CHETEK         SUNNY     59  24  26 SW3       30.09F
LADYSMITH      SUNNY     60  24  25 N9G17     30.10F
EAU CLAIRE     NOT AVBL
MENOMONIE      SUNNY     60  15  17 N6        30.09S
NEW RICHMOND   SUNNY     59  18  19 N9        30.11S
OSCEOLA        SUNNY     59  22  23 E3        30.13F
$$

WIZ003>005-009-010-017-018-262100-
NORTH CENTRAL WISCONSIN

CITY           SKY/WX    TMP DP  RH WIND       PRES   REMARKS
MANITOWISH WTR SUNNY     53  25  33 N10G22    30.09S
ARBOR VITAE    SUNNY     57  21  25 N14       30.07S
WOODRUFF       SUNNY     57  21  25 N14       30.07S
RHINELANDER    SUNNY     56  21  25 N12G18    30.06S
EAGLE RIVER    SUNNY     55  20  25 N17       30.06S
LAND O LAKES   SUNNY     53  24  31 N14G20    30.09S
PHILLIPS       SUNNY     57  22  26 N13G20    30.07F
TOMAHAWK       SUNNY     58  19  22 CALM      30.06S
MEDFORD        SUNNY     58  23  26 N5        30.06S
MERRILL        SUNNY     59  20  22 N13       30.05S
$$

WIZ029-030-035-036-043>047-262100-
CENTRAL WISCONSIN

CITY           SKY/WX    TMP DP  RH WIND       PRES   REMARKS
WAUSAU         SUNNY     60  18  19 N10       30.02F
MOSINEE        NOT AVBL
MARSHFIELD     SUNNY     61  24  24 N10       30.05F
STEVENS POINT  SUNNY     58  21  23 CALM      30.03F
WAUPACA        SUNNY     63  20  19 S3        30.02F
WAUTOMA        NOT AVBL
WISC RAPIDS    SUNNY     61  17  18 NE5G17    30.05F
CAMP DOUGLAS   NOT AVBL
$$

WIZ011>013-019>022-031-037>040-048>050-262100-
NORTHEAST WISCONSIN

CITY           SKY/WX    TMP DP  RH WIND       PRES   REMARKS
ANTIGO         SUNNY     57  23  27 N18       30.03F
SHAWANO        SUNNY     63  18  18 NE3       30.01F
OCONTO         SUNNY     53  25  34 E14       30.04S
STURGEON BAY   SUNNY     54  27  35 N14       30.06S
GREEN BAY      SUNNY     59  27  29 VRB6      30.02F
MANITOWOC      NOT AVBL
APPLETON       NOT AVBL
CLINTONVILLE   SUNNY     61  18  18 CALM      30.01F
OSHKOSH        SUNNY     58  28  32 E7        30.03F
$$

WIZ032>034-041-042-053>061-262100-
SOUTHWEST WISCONSIN

CITY           SKY/WX    TMP DP  RH WIND       PRES   REMARKS
LA CROSSE      SUNNY     63  25  23 W9        30.06F
SPARTA         SUNNY     61  19  20 NW6       30.06F
VIROQUA        SUNNY     58  26  28 NE8       30.06F
BOSCOBEL       SUNNY     62  24  23 NE7       30.04F
PRAIRIE DU CHI SUNNY     59  23  25 W9        30.05F
PLATTEVILLE    SUNNY     57  28  32 N6        30.04F
$$

WIZ056-057-062-063-064-067-068-262100-
SOUTH CENTRAL WISCONSIN

CITY           SKY/WX    TMP DP  RH WIND       PRES   REMARKS
REEDSBURG      SUNNY     57  28  32 W9        30.04F
BARABOO/DELLS  SUNNY     58  23  26 SE5       30.04F
LONE ROCK      NOT AVBL
MINERAL POINT  SUNNY     57  23  26 N13       30.04F
MADISON        MOSUNNY   58  25  28 N8        30.03F
MIDDLETON      SUNNY     59  24  26 NE8       30.04F
WATERTOWN      SUNNY     57  29  34 N9G16     30.02F
MONROE         SUNNY     55  30  38 N8        30.03F
JANESVILLE     SUNNY     61  25  25 N13G18    30.02F
$$

WIZ051-052-058>065-066-070>072-262100-
SOUTHEAST WISCONSIN

CITY           SKY/WX    TMP DP  RH WIND       PRES   REMARKS
MILWAUKEE      MOSUNNY   49  31  49 NE15      30.03F
WAUKESHA       MOSUNNY   54  30  40 NE14G22   30.03S
MILWAUKEE/TIMM NOT AVBL
RACINE         SUNNY     50  30  46 N13       30.05S
BURLINGTON     SUNNY     56  27  32 E8        30.00F
KENOSHA        SUNNY     56  29  35 NE20      30.02S
FOND DU LAC    SUNNY     59  24  26 NE13      30.04S
SHEBOYGAN      SUNNY     53  28  38 NE17      30.03F
WEST BEND      PTSUNNY   55  28  35 E8        30.01F
JUNEAU         SUNNY     56  27  33 N13G21    30.04F
$$

LSZ147-162-262100-
LAKE SUPERIOR

STATION/POSITION TIME  TEMP    WIND        PRES    WAVE
                       AIR SEA DIR/SP/G            HT/PER
                 (UTC) (F)     (DEG/KT/KT) (MB)    (FT/S)
W MID LAKE BUOY  1850   36 35   80/  6/  8 1023.8S   1/ 3
DEVILS ISLAND    1900   38      60/  6/  6 1023.5F
PORT WING        1940   39      20/ 13/ 15 1022.0F
SAXON HARBOR     1900   38     360/  3/  8 1022.4S
$$

LMZ867-665-643>646-262100-
LAKE MICHIGAN

STATION/POSITION TIME  TEMP    WIND        PRES    WAVE
                       AIR SEA DIR/SP/G            HT/PER
                 (UTC) (F)     (DEG/KT/KT) (MB)    (FT/S)
CHAMBERS ISLAND  1900   46      30/ 15/ 20 1017.6F
NORTHPORT PIER   1900   43     350/ 12/ 15 1017.9S
SISTER BAY       1917   55      20/ 15/ 25   N/A
KEWAUNEE LAKESHO 1900   42      60/  2/  7 1017.0F
SHEBOYGAN LAKESH 1900   40      10/  6/  7 1018.5F
PORT WASHINGTON  1900   43      50/ 10/ 13 1018.3
MILWAUKEE LAKESH 1900   40      40/ 12/ 14   N/A
KENOSHA   LAKESH 1900   41      30/ 17/ 19 1016.9S
$$

TC  - TEMPERATURE IN CELSIUS
VSB - VISIBILITY IN STATUTE MILES
WCI - WIND CHILL INDEX
HX  - HEAT INDEX




USA.gov is the U.S. government's official web portal to all federal, state and local government web resources and services.